Regional Weather Roundup
Issued by NWS

Home | Current Version | Previous Version | Graphics & Text | Print | Product List | Glossary On
Versions: 1 2 3 4 5 6 7 8 9 10 11 12 13 14 15 16 17 18 19 20 21 22 23 24 25 26 27 28 29 30 31 32 33 34 35 36 37 38 39 40 41 42 43 44 45 46 47 48 49 50
000
ASUS43 KOAX 061210
RWRNE

WEATHER ROUNDUP FOR NEBRASKA
NATIONAL WEATHER SERVICE OMAHA NE
600 AM CST FRI MAR 06 2015

NOTES: SATELLITE DATA IS BEING USED TO AUGMENT CLOUD COVER ABOVE
       12000 FEET.
       "FAIR" INDICATES FEW OR NO CLOUDS BELOW 12,000 FEET WITH NO
       SIGNIFICANT WEATHER AND/OR OBSTRUCTIONS TO VISIBILITY.

  * THESE STATIONS DO NOT REPORT WEATHER SUCH AS RAIN...SNOW OR FOG.

NEZ001>004-019>022-054>056-061300-
NEBRASKA PANHANDLE

CITY           SKY/WX    TMP DP  RH WIND       PRES   REMARKS
SCOTTSBLUFF    PTCLDY    29  21  72 NW7       30.21R WCI  22
6HR MIN TEMP:  26; 6HR MAX TEMP:  31;

ALLIANCE       PTCLDY    21  16  81 W6        30.17F WCI  13
6HR MIN TEMP:  17; 6HR MAX TEMP:  27;

CHADRON        CLOUDY    32  23  69 W7        30.18S WCI  26
6HR MIN TEMP:  28; 6HR MAX TEMP:  35;

KIMBALL        CLEAR     29  20  69 W12       30.20S WCI  19
SIDNEY         CLEAR     28  18  66 W13       30.21S WCI  17
6HR MIN TEMP:  26; 6HR MAX TEMP:  32;

$$

NEZ057>060-069>072-079>082-061300-
SOUTHWEST NEBRASKA

CITY           SKY/WX    TMP DP  RH WIND       PRES   REMARKS
NORTH PLATTE   CLEAR     16  11  80 NW6       30.21S WCI   7
6HR MIN TEMP:  12; 6HR MAX TEMP:  20;

IMPERIAL         N/A     27  17  66 W12       30.23R WCI  17
6HR MIN TEMP:  25; 6HR MAX TEMP:  31;

LEXINGTON      CLEAR     18  13  80 W8        30.22R WCI   8
MCCOOK         CLEAR     22  16  78 W8        30.25R WCI  12
6HR MIN TEMP:  21; 6HR MAX TEMP:  31;

OGALLALA       CLEAR     22  18  84 W10       30.22S WCI  12
$$

NEZ005>010-023>029-035>040-094-061300-
NORTH CENTRAL NEBRASKA

CITY           SKY/WX    TMP DP  RH WIND       PRES   REMARKS
VALENTINE      CLOUDY    25  20  81 W7        30.14R WCI  17
6HR MIN TEMP:  21; 6HR MAX TEMP:  25;

AINSWORTH      MOCLDY    27  20  73 W9        30.14R WCI  18
BROKEN BOW     CLEAR     25  14  63 CALM      30.17R
6HR MIN TEMP:  24; 6HR MAX TEMP:  34;

O`NEILL        PTCLDY    24  19  79 W8        30.14S WCI  16
ORD            CLEAR     18  10  71 CALM      30.17R
6HR MIN TEMP:  12; 6HR MAX TEMP:  22;

THEDFORD       CLEAR     22  17  80 W5        30.17S WCI  16
$$

NEZ041-046>049-061>064-073>077-083>087-061300-
SOUTH CENTRAL NEBRASKA

CITY           SKY/WX    TMP DP  RH WIND       PRES   REMARKS
GRAND ISLAND   CLEAR     21  13  71 W9        30.20R WCI  11
6HR MIN TEMP:  20; 6HR MAX TEMP:  31;

AURORA         CLEAR     20  12  70 W8        30.19R WCI  11
HASTINGS       CLEAR     26  13  57 W7        30.20R WCI  18
6HR MIN TEMP:  24; 6HR MAX TEMP:  31;

HEBRON         CLEAR     26  14  59 W7        30.23S WCI  19
HOLDREGE       CLEAR     27  16  62 W9        30.22R WCI  18
KEARNEY *      CLEAR     27  12  54 W9        30.21R WCI  17
YORK           CLEAR     19  14  79 W7        30.19R WCI  10
$$

NEZ011>018-030>034-042>045-061300-
NORTHEAST NEBRASKA

CITY           SKY/WX    TMP DP  RH WIND       PRES   REMARKS
NORFOLK        CLEAR     21  11  65 CALM      30.15R
6HR MIN TEMP:  19; 6HR MAX TEMP:  29;

ALBION         PTCLDY    16   9  74 CALM      30.16S
BLAIR          CLEAR     23  15  70 SW8       30.16R WCI  14
COLUMBUS *     CLEAR     19   5  53 W3        30.19R
FREMONT        CLEAR     17  11  77 CALM      30.18R
TEKAMAH        CLEAR     21  12  68 S5        30.17S WCI  15
6HR MIN TEMP:  17; 6HR MAX TEMP:  27;

WAYNE          CLEAR     25  13  59 CALM      30.14S
$$

NEZ050>053-065>068-078-088>093-061300-
SOUTHEAST NEBRASKA

CITY           SKY/WX    TMP DP  RH WIND       PRES   REMARKS
LINCOLN        CLEAR     21  12  68 S3        30.21R
6HR MIN TEMP:  21; 6HR MAX TEMP:  29;

OMAHA EPPLEY   PTCLDY    18  12  77 S9        30.20S WCI   7
6HR MIN TEMP:  18; 6HR MAX TEMP:  26;

BEATRICE       CLEAR     23  16  73 SW7       30.23R WCI  15
FALLS CITY     CLEAR     28  19  69 SW12      30.24S WCI  18
6HR MIN TEMP:  24; 6HR MAX TEMP:  28;

NEBRASKA CITY  CLEAR     27  16  62 SW16      30.19S WCI  15
PLATTSMOUTH    CLEAR     23  15  70 S8G16     30.18S WCI  14
$$

NEZ044-045-051>053-067-061300-
OMAHA AREA

CITY           SKY/WX    TMP DP  RH WIND       PRES   REMARKS
OMAHA EPPLEY   PTCLDY    18  12  77 S9        30.20S WCI   7
6HR MIN TEMP:  18; 6HR MAX TEMP:  26;

BLAIR          CLEAR     23  15  70 SW8       30.16R WCI  14
FREMONT        CLEAR     17  11  77 CALM      30.18R
MILLARD        CLEAR     19  14  79 CALM      30.19S
OFFUTT AFB     PTCLDY    16  11  82 E1        30.18S
PLATTSMOUTH    CLEAR     23  15  70 S8G16     30.18S WCI  14
WAHOO          FAIR      23  11  61 W5        30.18S WCI  16
$$



USA.gov is the U.S. government's official web portal to all federal, state and local government web resources and services.